{"data":{"norad_id":48859,"intl_designator":"2021-054A","name":"GPS BIII-5  (PRN 11)","alt_names":[],"object_type":"PAYLOAD","status":"ACTIVE","operator":null,"country":"US","launch_date":"2021-06-17","launch_site_code":"AFETR","launch_vehicle":null,"mission":null,"orbit_class":"UNKNOWN","rcs_meters":null,"size_class":null,"mass_kg":null,"dimensions":null,"purposes":["nav"],"wikipedia_slug":null,"has_3d_model":false,"image_url":null,"decayed_at":null,"tle_current":{"epoch":"2026-09-19T19:08:52.166400Z","epoch_age_seconds":75002,"freshness":"FRESH","line1":"1 48859U 21054A   26262.79782600 -.00000082  00000+0  00000+0 0  9992","line2":"2 48859  55.1223 328.6531 0028669 230.9161 171.8553  2.00563585 38651","mean_motion":2.00563585,"eccentricity":0.0028669,"inclination_deg":55.1223,"raan_deg":328.6531,"arg_perigee_deg":230.9161,"mean_anomaly_deg":171.8553,"bstar":0,"rev_number":3865,"period_min":717.97679523928,"perigee_km":20106.066629008,"apogee_km":20258.358360943,"semimajor_km":26560.349494975,"source":"CELESTRAK","updated_at":"2026-09-20T09:00:46.120769Z"}}}